Location: *
(38.4303°S, 157.0822°W)
Time: 16:37:21
(UTC+00:00)

DMSP B5D2-2 - Pass Details

Date: 10 August 2024
Orbit: 787 x 802 km, 98.3° (Epoch: 06 September)

Event Time Altitude Azimuth Distance (km) Brightness Sun altitude
Rises 16:05:55 0° 181° (S) 3,348 7.2 -14.8°
Reaches altitude 10° 16:08:39 10° 194° (SSW) 2,408 6.4 -14.2°
Maximum altitude 16:12:52 25° 246° (WSW) 1,601 5.1 -13.4°
Drops below altitude 10° 16:17:03 10° 299° (WNW) 2,377 6.1 -12.6°
Enters shadow 16:18:04 - 305° (NW) 2,708 6.4 -12.4°
